EW6470 Weather Reports


Display with metric or nautical units.
time (UTC)temp
F
wind
direction
speed
MPH
gust
MPH
rain 1hr
in
rain 24hr
in
rain mn
in
humidity
%
barometer
mb
20260509064528 40 0 0.0 0.0 0.00 0.00 0.00 84 999.6
20260509064010 41 0 0.0 1.0 0.00 0.00 0.00 84 999.8
20260509063509 41 0 0.0 1.0 0.00 0.00 0.00 84 999.8
20260509063031 41 295 0.0 1.0 0.00 0.00 0.00 82 999.8
20260509062510 41 0 0.0 1.0 0.00 0.00 0.00 81 999.8
20260509062010 41 0 0.0 0.0 0.00 0.00 0.00 80 999.7
20260509061530 42 0 0.0 0.0 0.00 0.00 0.00 79 999.7
20260509061010 42 0 0.0 0.0 0.00 0.00 0.00 78 999.9
20260509060509 42 0 0.0 0.0 0.00 0.00 0.00 77 999.9
20260509060040 42 0 0.0 0.0 0.00 0.00 0.00 76 999.9
20260509055511 42 0 0.0 1.0 0.00 0.00 0.00 76 1000.0
20260509055008 42 0 0.0 1.0 0.00 0.00 0.00 74 999.8
20260509054528 42 0 0.0 1.0 0.00 0.00 0.00 73 999.8
20260509054009 42 0 0.0 1.0 0.00 0.00 0.00 75 999.9
20260509053510 42 0 0.0 2.0 0.00 0.00 0.00 76 999.9
20260509053033 42 269 0.0 2.0 0.00 0.00 0.00 76 999.8
20260509052508 42 275 1.0 3.0 0.00 0.00 0.00 76 999.9
20260509052009 43 286 1.0 3.0 0.00 0.00 0.00 75 1000.0
20260509051529 43 267 1.0 3.0 0.00 0.00 0.00 74 1000.1
20260509051010 43 267 1.0 2.0 0.00 0.00 0.00 73 1000.1
20260509050510 43 262 0.0 3.0 0.00 0.00 0.00 72 1000.2
20260509050031 43 243 0.0 3.0 0.00 0.00 0.00 72 1000.2
20260509045511 43 172 1.0 3.0 0.00 0.00 0.00 71 1000.2
20260509045013 44 281 1.0 2.0 0.00 0.00 0.00 71 1000.1
20260509044536 44 246 1.0 2.0 0.00 0.00 0.00 70 1000.3
20260509044009 44 294 1.0 2.0 0.00 0.00 0.00 70 1000.2
20260509043510 44 275 0.0 3.0 0.00 0.00 0.00 70 1000.2
20260509043034 44 250 1.0 3.0 0.00 0.00 0.00 69 1000.2
20260509042510 44 267 1.0 3.0 0.00 0.00 0.00 70 1000.3
20260509042013 44 274 0.0 4.0 0.00 0.00 0.00 72 1000.3
20260509041528 44 280 1.0 4.0 0.00 0.00 0.00 71 1000.4
20260509041009 43 252 1.0 4.0 0.00 0.00 0.00 72 1000.5
20260509040511 43 265 2.0 4.0 0.00 0.00 0.00 72 1000.5
20260509040029 44 284 1.0 2.0 0.00 0.00 0.00 72 1000.6
20260509035511 44 281 0.0 3.0 0.00 0.00 0.00 72 1000.5
20260509035012 44 0 1.0 3.0 0.00 0.00 0.00 72 1000.6
20260509034541 44 284 1.0 3.0 0.00 0.00 0.00 71 1000.7
20260509034011 44 0 0.0 1.0 0.00 0.00 0.00 72 1000.6
20260509033510 44 317 0.0 1.0 0.00 0.00 0.00 72 1000.7
20260509033031 44 262 0.0 1.0 0.00 0.00 0.00 72 1000.8
20260509032510 44 14 0.0 2.0 0.00 0.00 0.00 73 1000.9
20260509032014 44 251 0.0 2.0 0.00 0.00 0.00 71 1000.9
20260509031532 45 0 0.0 2.0 0.00 0.00 0.00 71 1001.0
20260509031010 45 337 0.0 2.0 0.00 0.00 0.00 70 1001.0
20260509030510 45 336 0.0 2.0 0.00 0.00 0.00 70 1001.1
20260509030030 45 0 0.0 2.0 0.00 0.00 0.00 69 1001.2
20260509025510 45 17 0.0 2.0 0.00 0.00 0.00 67 1001.2
20260509025010 45 352 0.0 3.0 0.00 0.00 0.00 68 1001.2
20260509024527 45 298 0.0 3.0 0.00 0.00 0.00 67 1001.3
20260509024012 45 306 0.0 3.0 0.00 0.00 0.00 67 1001.3
20260509023510 45 55 1.0 4.0 0.00 0.00 0.00 67 1001.4
20260509023028 45 348 1.0 4.0 0.00 0.00 0.00 67 1001.3
20260509022509 45 0 0.0 3.0 0.00 0.00 0.00 68 1001.5
20260509022011 45 36 1.0 3.0 0.00 0.00 0.00 67 1001.5
20260509021535 45 279 1.0 3.0 0.00 0.00 0.00 65 1001.5
20260509021009 45 294 1.0 3.0 0.00 0.00 0.00 63 1001.7
20260509020509 45 284 1.0 3.0 0.00 0.00 0.00 61 1001.7
20260509020033 45 270 0.0 4.0 0.00 0.00 0.00 62 1001.8
20260509015512 45 279 2.0 4.0 0.00 0.00 0.00 61 1001.9
20260509015010 45 290 1.0 5.0 0.00 0.00 0.00 62 1002.1
20260509014529 45 272 1.0 5.0 0.00 0.00 0.00 63 1002.1
20260509014009 45 248 2.0 6.0 0.00 0.00 0.00 63 1002.2
20260509013508 46 304 1.0 6.0 0.00 0.00 0.00 64 1002.3
20260509013032 46 22 0.0 3.0 0.00 0.00 0.00 62 1002.3
20260509012512 46 275 1.0 7.0 0.00 0.00 0.00 59 1002.2
20260509012010 46 305 2.0 7.0 0.00 0.00 0.00 61 1002.3
20260509011539 47 267 2.0 6.0 0.00 0.00 0.00 61 1002.2
20260509011011 47 238 3.0 6.0 0.00 0.00 0.00 60 1002.5
20260509010509 47 232 2.0 7.0 0.00 0.00 0.00 58 1002.5
20260509010035 48 219 2.0 7.0 0.00 0.00 0.00 56 1002.4
20260509005510 48 291 1.0 5.0 0.00 0.00 0.00 55 1002.5
20260509005010 48 175 2.0 5.0 0.00 0.00 0.00 53 1002.5
20260509004540 48 268 1.0 3.0 0.00 0.00 0.00 53 1002.8
20260509004010 48 273 1.0 4.0 0.00 0.00 0.00 53 1002.7
20260509003510 48 149 1.0 4.0 0.00 0.00 0.00 52 1002.7
20260509003031 48 270 1.0 4.0 0.00 0.00 0.00 53 1002.8
20260509002510 48 0 0.0 4.0 0.00 0.00 0.00 52 1002.9
20260509002012 48 278 1.0 4.0 0.00 0.00 0.00 53 1003.1
20260509001528 48 283 2.0 4.0 0.00 0.00 0.00 51 1003.2
20260509001010 48 291 0.0 5.0 0.00 0.00 0.00 53 1003.2
20260509000512 48 261 1.0 5.0 0.00 0.00 0.00 53 1003.3
20260509000027 48 179 2.0 5.0 0.00 0.00 0.00 53 1003.4
20260508235514 48 249 1.0 3.0 0.00 0.00 0.00 52 1003.3
20260508235010 48 0 0.0 5.0 0.00 0.00 0.00 52 1003.4
20260508234531 48 164 1.0 5.0 0.00 0.00 0.00 52 1003.6
20260508234011 48 208 1.0 3.0 0.00 0.00 0.00 53 1003.4
20260508233512 48 276 1.0 2.0 0.00 0.00 0.00 50 1003.5
20260508233032 48 268 0.0 3.0 0.00 0.00 0.00 50 1003.6
20260508232510 48 134 1.0 3.0 0.00 0.00 0.00 51 1003.7
20260508232010 48 153 1.0 3.0 0.00 0.00 0.00 50 1003.7
20260508231530 48 165 1.0 2.0 0.00 0.00 0.00 51 1003.8
20260508231008 48 279 0.0 3.0 0.00 0.00 0.00 50 1003.8
20260508230508 48 0 1.0 7.0 0.00 0.00 0.00 50 1003.9
20260508230030 48 234 2.0 7.0 0.00 0.00 0.00 50 1004.0
20260508225513 48 244 2.0 6.0 0.00 0.00 0.00 50 1004.0
20260508225027 49 258 1.0 6.0 0.00 0.00 0.00 51 1004.1
20260508224530 49 294 1.0 7.0 0.00 0.00 0.00 51 1004.2
20260508224009 49 87 1.0 7.0 0.00 0.00 0.00 50 1004.2
20260508223510 49 193 2.0 6.0 0.00 0.00 0.00 49 1004.3
20260508223039 50 261 3.0 6.0 0.00 0.00 0.00 48 1004.4
20260508222511 50 196 2.0 4.0 0.00 0.00 0.00 48 1004.3
20260508222010 50 229 0.0 4.0 0.00 0.00 0.00 51 1004.4
20260508221531 49 81 1.0 4.0 0.00 0.00 0.00 49 1004.5
20260508221013 50 342 1.0 4.0 0.00 0.00 0.00 50 1004.5
20260508220509 49 39 1.0 4.0 0.00 0.00 0.00 52 1004.7
20260508220030 48 109 0.0 2.0 0.00 0.00 0.00 53 1004.7
20260508215508 48 223 0.0 6.0 0.00 0.00 0.00 53 1004.9
20260508215009 48 217 2.0 6.0 0.00 0.00 0.00 51 1005.0
20260508214538 48 13 1.0 3.0 0.00 0.00 0.00 54 1005.1
20260508214008 47 298 0.0 2.0 0.00 0.00 0.00 55 1005.3
20260508213508 47 319 0.0 4.0 0.00 0.00 0.00 54 1005.3
20260508213033 47 0 0.0 4.0 0.00 0.00 0.00 53 1005.4
20260508212511 47 213 1.0 7.0 0.00 0.00 0.00 53 1005.5
20260508212014 47 263 1.0 7.0 0.00 0.00 0.00 55 1005.5
20260508211532 47 243 1.0 6.0 0.00 0.00 0.00 48 1005.6
20260508211009 47 0 1.0 6.0 0.00 0.00 0.00 51 1005.6
20260508210511 46 184 3.0 6.0 0.00 0.00 0.00 50 1005.7
20260508210030 47 123 1.0 3.0 0.00 0.00 0.00 53 1005.7
20260508205509 46 110 0.0 2.0 0.00 0.00 0.00 54 1005.8
20260508205009 46 344 0.0 2.0 0.00 0.00 0.00 52 1005.8
20260508204533 46 344 1.0 2.0 0.00 0.00 0.00 55 1005.9
20260508204013 46 55 0.0 4.0 0.00 0.00 0.00 57 1005.9
20260508203509 46 0 1.0 4.0 0.00 0.00 0.00 53 1006.0
20260508203028 47 199 1.0 3.0 0.00 0.00 0.00 53 1006.1
20260508202510 47 133 1.0 3.0 0.00 0.00 0.00 52 1006.1
20260508202012 47 0 1.0 3.0 0.00 0.00 0.00 56 1006.2
20260508201529 47 99 0.0 3.0 0.00 0.00 0.00 57 1006.4
20260508201009 47 35 1.0 3.0 0.00 0.00 0.00 55 1006.3
20260508200510 48 152 0.0 3.0 0.00 0.00 0.00 56 1006.4
20260508200030 47 136 0.0 5.0 0.00 0.00 0.00 58 1006.4
20260508195510 47 284 2.0 5.0 0.00 0.00 0.00 55 1006.5
20260508195010 48 156 1.0 6.0 0.00 0.00 0.00 56 1006.6
20260508194528 48 95 1.0 6.0 0.00 0.00 0.00 59 1006.7
20260508194012 47 90 3.0 6.0 0.00 0.00 0.00 57 1006.7
20260508193510 47 263 1.0 6.0 0.00 0.00 0.00 55 1006.6
20260508193029 47 78 1.0 3.0 0.00 0.00 0.00 58 1006.7
20260508192511 46 121 0.0 1.0 0.00 0.00 0.00 61 1006.9
20260508192010 46 69 0.0 2.0 0.00 0.00 0.00 62 1006.9
20260508191532 46 65 1.0 3.0 0.00 0.00 0.00 62 1007.0
20260508191011 45 73 0.0 4.0 0.00 0.00 0.00 65 1007.0
20260508190510 45 15 1.0 4.0 0.00 0.00 0.00 66 1007.1
20260508190031 45 135 1.0 3.0 0.00 0.00 0.00 63 1007.2
20260508185511 45 30 0.0 3.0 0.00 0.00 0.00 64 1007.2
20260508185009 45 91 1.0 2.0 0.00 0.00 0.00 63 1007.3
20260508184532 45 144 0.0 2.0 0.00 0.00 0.00 65 1007.4
20260508184010 44 235 1.0 3.0 0.00 0.00 0.00 66 1007.5
20260508183512 44 146 1.0 5.0 0.00 0.00 0.00 67 1007.5
20260508183028 44 38 1.0 5.0 0.00 0.00 0.00 68 1007.5
20260508182510 44 123 2.0 5.0 0.00 0.00 0.00 69 1007.6
20260508182011 44 118 2.0 5.0 0.00 0.00 0.00 71 1007.8
20260508181530 43 134 1.0 2.0 0.00 0.00 0.00 72 1007.8
20260508181010 43 181 0.0 2.0 0.00 0.00 0.00 72 1007.8
20260508180513 42 264 1.0 2.0 0.00 0.00 0.00 72 1007.9
20260508180030 42 153 1.0 2.0 0.00 0.00 0.00 74 1007.9
20260508175511 42 0 1.0 2.0 0.00 0.00 0.00 72 1007.9
20260508175012 42 137 1.0 3.0 0.00 0.00 0.00 73 1008.1
20260508174530 42 130 1.0 3.0 0.00 0.00 0.00 74 1008.2
20260508174013 42 137 1.0 3.0 0.00 0.00 0.00 74 1008.2
20260508173511 41 278 1.0 3.0 0.00 0.00 0.00 74 1008.2
20260508173028 41 0 0.0 3.0 0.00 0.00 0.00 75 1008.3
20260508172510 41 280 1.0 4.0 0.00 0.00 0.00 74 1008.4
20260508172013 42 215 1.0 4.0 0.00 0.00 0.00 75 1008.5
20260508171536 41 186 1.0 2.0 0.00 0.00 0.00 75 1008.5
20260508171010 41 155 0.0 3.0 0.00 0.00 0.00 75 1008.6
20260508170510 41 150 1.0 3.0 0.00 0.00 0.00 75 1008.7
20260508170031 41 134 0.0 3.0 0.00 0.00 0.00 76 1008.7
20260508165509 41 121 0.0 3.0 0.00 0.00 0.00 77 1008.7
20260508165009 41 163 0.0 2.0 0.00 0.00 0.00 78 1008.7
20260508164529 40 143 0.0 2.0 0.00 0.00 0.00 80 1008.7
20260508164012 40 143 0.0 2.0 0.00 0.00 0.00 80 1008.8
20260508163509 40 0 0.0 3.0 0.00 0.00 0.00 82 1008.9
20260508163027 39 158 0.0 3.0 0.00 0.00 0.00 83 1008.9
20260508162530 39 0 0.0 1.0 0.00 0.00 0.00 85 1008.9
20260508162011 38 0 0.0 1.0 0.00 0.00 0.00 86 1009.0
20260508161528 38 123 0.0 1.0 0.00 0.00 0.00 86 1009.0
20260508161008 38 123 0.0 1.0 0.00 0.00 0.00 87 1009.1
20260508160509 37 0 0.0 1.0 0.00 0.00 0.00 87 1009.1
20260508160049 37 0 0.0 1.0 0.00 0.00 0.00 87 1009.4
20260508155511 37 0 0.0 0.0 0.00 0.00 0.00 87 1009.4
20260508155010 37 0 0.0 0.0 0.00 0.00 0.00 88 1009.3
20260508154528 37 0 0.0 1.0 0.00 0.00 0.00 88 1009.4
20260508154009 36 0 0.0 1.0 0.00 0.00 0.00 88 1009.5
20260508153509 36 0 0.0 1.0 0.00 0.00 0.00 88 1009.6
20260508153032 36 0 0.0 0.0 0.00 0.00 0.00 88 1009.5
20260508152514 36 0 0.0 0.0 0.00 0.00 0.00 88 1009.7
20260508152016 36 0 0.0 0.0 0.00 0.00 0.00 88 1009.7
20260508151527 36 0 0.0 0.0 0.00 0.00 0.00 88 1009.8
20260508151009 36 0 0.0 0.0 0.00 0.00 0.00 88 1009.8
20260508150511 36 0 0.0 0.0 0.00 0.00 0.00 89 1009.8
20260508150034 35 0 0.0 0.0 0.00 0.00 0.00 89 1009.9
20260508145510 35 0 0.0 0.0 0.00 0.00 0.00 89 1010.0
20260508145015 35 0 0.0 0.0 0.00 0.00 0.00 89 1010.0
20260508144529 35 0 0.0 0.0 0.00 0.00 0.00 89 1009.8
20260508144010 35 0 0.0 0.0 0.00 0.00 0.00 88 1009.8
20260508143512 35 0 0.0 0.0 0.00 0.00 0.00 88 1009.9
20260508143039 35 0 0.0 0.0 0.00 0.00 0.00 88 1010.0
20260508142509 35 0 0.0 0.0 0.00 0.00 0.00 87 1009.9
20260508142009 36 0 0.0 0.0 0.00 0.00 0.00 87 1010.1
20260508141537 36 0 0.0 0.0 0.00 0.00 0.00 87 1010.1
20260508141010 36 0 0.0 1.0 0.00 0.00 0.00 86 1010.4
20260508140511 36 0 0.0 1.0 0.00 0.00 0.00 86 1010.3
20260508140028 36 0 0.0 0.0 0.00 0.00 0.00 85 1010.4
20260508135514 36 0 0.0 0.0 0.00 0.00 0.00 85 1010.5
20260508135010 36 0 0.0 0.0 0.00 0.00 0.00 85 1010.4
20260508134533 36 0 0.0 0.0 0.00 0.00 0.00 85 1010.4
20260508134014 36 0 0.0 0.0 0.00 0.00 0.00 85 1010.7
20260508133511 36 0 0.0 0.0 0.00 0.00 0.00 85 1010.7
20260508133028 36 0 0.0 0.0 0.00 0.00 0.00 85 1010.8
20260508132510 36 0 0.0 1.0 0.00 0.00 0.00 85 1010.7
20260508132010 36 0 0.0 1.0 0.00 0.00 0.00 85 1010.8
20260508131527 36 0 0.0 0.0 0.00 0.00 0.00 85 1010.8
20260508131010 36 0 0.0 1.0 0.00 0.00 0.00 85 1010.8
20260508130507 36 0 0.0 1.0 0.00 0.00 0.00 85 1010.8
20260508130030 36 0 0.0 1.0 0.00 0.00 0.00 85 1011.0
20260508125511 36 263 0.0 1.0 0.00 0.00 0.00 85 1010.9
20260508125011 36 258 0.0 1.0 0.00 0.00 0.00 85 1011.0
20260508124530 36 0 0.0 1.0 0.00 0.00 0.00 85 1011.0
20260508124012 37 0 0.0 2.0 0.00 0.00 0.00 85 1011.0
20260508123510 37 0 0.0 2.0 0.00 0.00 0.00 85 1011.1
20260508123028 37 0 0.0 2.0 0.00 0.00 0.00 85 1011.1
20260508122514 37 0 0.0 1.0 0.00 0.00 0.00 86 1011.2
20260508122012 37 350 0.0 1.0 0.00 0.00 0.00 86 1011.3
20260508121551 37 0 0.0 2.0 0.00 0.00 0.00 86 1011.3
20260508121010 37 352 0.0 2.0 0.00 0.00 0.00 86 1011.3
20260508120512 37 282 0.0 2.0 0.00 0.00 0.00 86 1011.4
20260508120031 37 76 0.0 3.0 0.00 0.00 0.00 86 1011.5
20260508115508 37 0 0.0 3.0 0.00 0.01 0.00 86 1011.6
20260508115008 37 0 0.0 3.0 0.00 0.01 0.00 85 1011.6
20260508114531 37 273 0.0 3.0 0.00 0.01 0.00 85 1011.7
20260508114010 37 286 0.0 3.0 0.00 0.01 0.00 85 1011.8
20260508113512 38 268 0.0 3.0 0.00 0.01 0.00 85 1011.8
20260508113028 38 292 1.0 3.0 0.00 0.01 0.00 86 1011.9
20260508112511 37 288 1.0 3.0 0.00 0.01 0.00 86 1011.9
20260508112011 38 275 0.0 1.0 0.00 0.01 0.00 86 1012.1
20260508111528 37 254 1.0 2.0 0.00 0.01 0.00 86 1012.1
20260508111008 37 281 1.0 2.0 0.00 0.01 0.00 87 1012.2
20260508110507 37 250 0.0 1.0 0.00 0.01 0.00 87 1012.2
20260508110038 37 0 0.0 1.0 0.00 0.01 0.00 87 1012.2
20260508105511 37 0 0.0 1.0 0.00 0.01 0.00 87 1012.2
20260508105009 38 0 0.0 1.0 0.00 0.01 0.00 86 1012.4
20260508104527 38 0 0.0 1.0 0.00 0.01 0.00 86 1012.4
20260508104010 38 277 0.0 1.0 0.00 0.01 0.00 86 1012.4
20260508103509 38 0 0.0 4.0 0.00 0.01 0.00 86 1012.5
20260508103032 38 276 0.0 4.0 0.00 0.01 0.00 86 1012.4
20260508102508 38 276 1.0 4.0 0.00 0.01 0.00 86 1012.5
20260508102011 38 283 1.0 1.0 0.00 0.01 0.00 86 1012.6
20260508101529 38 268 0.0 1.0 0.00 0.01 0.00 86 1012.5
20260508101013 38 271 0.0 1.0 0.00 0.01 0.00 86 1012.7
20260508100508 38 272 0.0 1.0 0.00 0.01 0.00 86 1012.6
20260508100032 38 0 0.0 1.0 0.00 0.01 0.00 86 1012.7
20260508095509 38 0 0.0 1.0 0.00 0.03 0.00 86 1012.8
20260508095011 38 0 0.0 1.0 0.00 0.03 0.00 86 1012.7
20260508094530 38 0 0.0 2.0 0.00 0.03 0.00 86 1012.7
20260508094011 38 277 0.0 2.0 0.00 0.03 0.00 86 1012.7
20260508093509 38 284 1.0 2.0 0.00 0.03 0.00 86 1012.8
20260508093030 38 275 0.0 1.0 0.00 0.03 0.00 86 1012.8
20260508092508 38 277 0.0 4.0 0.00 0.03 0.00 85 1013.0
20260508092013 38 275 0.0 4.0 0.00 0.03 0.00 85 1012.9
20260508091529 38 269 0.0 1.0 0.00 0.03 0.00 85 1013.0
20260508091011 38 304 0.0 2.0 0.00 0.03 0.00 85 1012.9
20260508090512 39 290 0.0 3.0 0.00 0.03 0.00 85 1012.9
20260508090028 39 279 0.0 3.0 0.00 0.03 0.00 85 1013.0
20260508085514 39 284 0.0 3.0 0.00 0.06 0.00 84 1013.1
20260508085010 39 290 0.0 2.0 0.00 0.06 0.00 84 1013.2
20260508084529 39 285 0.0 3.0 0.00 0.06 0.00 83 1013.1
20260508084011 39 28 0.0 3.0 0.00 0.06 0.00 82 1013.1
20260508083510 39 292 0.0 3.0 0.00 0.06 0.00 82 1013.2
20260508083111 39 293 0.0 1.0 0.00 0.06 0.00 82 1013.1
20260508082509 39 279 0.0 1.0 0.00 0.06 0.00 82 1013.1
20260508082011 39 271 0.0 1.0 0.00 0.06 0.00 81 1013.2
20260508081529 40 0 0.0 1.0 0.00 0.06 0.00 80 1013.4
20260508081009 40 0 0.0 1.0 0.00 0.06 0.00 79 1013.3
20260508080510 40 0 0.0 1.0 0.00 0.06 0.00 77 1013.3
20260508080028 41 0 0.0 1.0 0.00 0.06 0.00 75 1013.4
20260508075509 41 271 0.0 1.0 0.00 0.10 0.06 75 1013.5
20260508075010 41 0 0.0 1.0 0.00 0.10 0.06 74 1013.4
20260508074534 41 262 0.0 1.0 0.00 0.10 0.06 75 1013.4
20260508074010 40 274 0.0 1.0 0.00 0.10 0.06 76 1013.4
20260508073510 40 0 0.0 0.0 0.00 0.10 0.06 75 1013.4
20260508073032 40 0 0.0 0.0 0.00 0.10 0.06 76 1013.4
20260508072509 40 0 0.0 0.0 0.00 0.10 0.06 75 1013.5
20260508072010 40 0 0.0 0.0 0.00 0.10 0.06 76 1013.5
20260508071532 41 0 0.0 0.0 0.00 0.10 0.06 75 1013.6
20260508071009 41 0 0.0 0.0 0.00 0.10 0.06 76 1013.7
20260508070508 41 0 0.0 0.0 0.00 0.10 0.06 75 1013.6
20260508070028 41 0 0.0 0.0 0.00 0.10 0.06 75 1013.6
20260508065508 41 0 0.0 0.0 0.00 0.10 0.06 74 1013.7
20260508065008 42 0 0.0 0.0 0.00 0.10 0.06 73 1013.5